COSMOS 1275 DEB, 13481

Orbit data source: Space-Track

COSMOS 1275 DEB, 13481 is space debris in LEO originally from a launch on Thu, 04 Jun 1981 UTC launched from the Plesetsk Missile And Space Complex (PKMTR). Debris objects in space refer to the collection of defunct objects orbiting the Earth. Examples of debris include non-operational satellites, rocket bodies, and fragments generated from explosions, collisions, or faulty payload assembly.

Loading next visibility...
Identifier
13481, 1981-053GB
Orbit
LEO
Country
Flag of CISCIS
Related business
Manufacturer
Unknown
Mission
Spacecraft
Bus & Motor
Unknown
Mass
Unknown
Launch date (UTC)
1981-06-04 (45 years ago)
Launch vehicle
Unknown
Launch site
Plesetsk Missile And Space Complex (PKMTR)
Object type
Payload
Rocket body
Debris
Shape & HBR
Unknown shape, 0.1 m
Radar Cross Section
Small (<0.1 m²)

Expand to show TLE details & history
Last TLE update: 1 day ago

TLE from 1 day ago
0 COSMOS 1275 DEB
1 13481U 81053GB  26067.51640170  .00186236  00000-0  90194-2 0  9990
2 13481  82.9627  95.3849 0001120  45.4814 314.6513 15.17697482252430
Epoch: 2026-03-08T12:23Z
TLE epoch observation values (Epoch: 2026-03-08T12:23:37.106Z)
Latitude
0.00003°
Longitude
103.25772°
Altitude
515.356 km
Speed
7.606 km/s
True Right ascension
06h 21m 32s
True Declination
0° 00' 00"
Sunlit
Object was in daylight at epoch
Visualization orbit readout
Latitude
Unknown
Longitude
Unknown
Altitude
Unknown
Speed
Unknown
Apparent Right ascension
Unknown
Apparent Declination
Unknown
Sunlit
N/A
Visualization observer readout
Local Sidereal Time
16:15:42
Azimuth
Unknown
Elevation
Unknown
Doppler factor
Unknown
Orbital elements
Apogee altitude
510.526 km
Perigee altitude
508.983 km
Semi-major axis
6,887.892 km
Eccentricity
0.00011
Inclination
82.9627°
RAAN
95.3849°
Arg. of periapsis
45.4814°
True anomaly
314.64217°
Mean anomaly
314.6513°
Eccentric anomaly
314.64673°
Mean motion
3.79676 °/min
Orbital period
94.82 mins
BSTAR
0.0090194
Loading maneuver chart data...
Computing Atmospheric mass density...
Loading historical data...
Loading historical data...
Loading historical data...
Loading historical data...
Loading historical data...
Loading historical data...
Loading historical data...

Documentation

Showing up to 5 results
|